Cloud_Cover
6 0 0 0 0 0 0 0 0 0 0 0 0 1 0 0 5 12 100 100 89 100 89 100 100 100 100 100 100 100 100 100 96 49 27 3 11 0 0 0 0 0 0 1 99
18 4 0 0 0 0 0 0 0 0 0 0 0 2 0 0 3 5 40 100 100 100 100 98 100 100 100 100 100 100 100 99 25 76 82 1 70 6 35 2 4 20 0 0 0
15 2 7 2 0 0 0 0 0 0 0 0 0 0 0 0 2 4 5 100 100 100 100 72 100 100 100 100 100 100 100 92 65 52 47 9 51 30 0 0 0 2 96 100 9
7 5 7 11 1 0 5 0 0 0 0 0 0 0 0 0 0 0 0 5 60 100 63 100 78 73 100 100 100 100 100 22 23 90 88 99 18 6 13 0 0 0 1 86 100
56 28 17 8 8 0 5 0 0 0 0 0 0 0 0 0 0 0 0 6 21 70 72 41 94 100 100 94 99 100 90 85 7 53 97 66 8 0 8 1 0 0 2 32 84
100 100 93 28 12 0 0 5 0 5 0 0 0 19 0 0 0 0 0 5 6 5 3 4 99 100 100 99 100 77 97 14 82 18 80 6 83 100 60 18 0 0 0 1 39
100 100 100 88 17 16 0 0 3 0 5 0 0 0 5 0 0 0 0 0 5 64 74 0 30 100 100 100 90 100 100 44 45 64 12 35 100 100 100 7 0 5 19 4 19
100 100 100 100 28 7 0 0 0 4 0 0 0 5 0 0 0 0 0 0 5 25 54 5 5 53 100 100 100 100 100 100 71 53 93 80 95 100 81 0 0 2 43 24 5
100 100 100 100 41 13 0 0 0 0 5 1 8 0 4 1 0 0 0 0 0 3 4 4 5 2 4 100 100 100 100 70 85 98 91 100 100 100 100 5 2 0 29 100 87
100 100 98 33 36 7 0 0 0 0 1 4 5 0 1 0 0 0 0 0 0 0 0 0 0 0 24 100 100 100 100 100 93 38 100 94 100 100 85 5 5 4 28 100 100
100 100 100 75 13 2 5 0 0 0 0 0 2 0 0 0 0 0 0 0 0 0 0 0 0 3 98 56 71 100 82 98 100 99 100 100 100 100 88 89 100 66 100 100 100
100 100 100 97 5 6 26 0 0 0 0 0 0 0 0 0 0 0 0 0 0 0 0 0 0 4 78 59 5 89 52 99 37 3 0 52 93 100 100 100 100 100 100 100 100
100 100 100 100 15 3 0 0 0 0 0 0 0 0 0 0 0 3 0 0 0 0 0 0 0 1 4 0 2 4 31 25 33 4 2 2 8 21 92 100 100 100 100 100 99
98 100 100 97 0 0 0 0 0 0 0 0 0 0 0 0 0 0 0 0 0 0 0 0 0 0 0 0 0 0 0 4 6 1 0 0 0 50 5 33 70 98 99 82 1
100 100 98 98 0 0 0 0 0 0 0 0 0 0 0 0 0 0 0 0 0 0 0 0 0 0 0 0 0 0 0 0 0 0 0 0 0 0 0 0 32 32 93 47 94
100 100 98 0 0 0 0 0 0 0 0 0 0 0 0 0 0 0 0 0 0 0 0 0 0 0 0 0 0 0 0 0 0 0 0 0 0 0 0 73 7 12 97 100 100
80 59 94 0 0 0 0 0 0 0 0 0 0 0 0 0 0 0 0 0 0 0 0 0 0 0 0 0 0 0 0 0 0 0 0 0 0 0 0 0 43 49 87 100 100
39 58 0 0 0 0 0 0 0 0 0 0 0 0 0 0 0 0 0 0 0 0 0 0 0 0 0 0 0 0 0 0 0 0 0 0 0 0 0 0 0 0 0 10 8
48 0 0 0 0 0 0 0 0 0 0 3 0 0 0 0 0 0 0 0 0 0 0 0 0 0 0 0 0 0 0 0 0 0 0 0 11 7 36 3 0 0 0 0 0
0 0 0 0 0 0 0 6 1 0 0 9 13 0 0 0 0 0 0 0 0 0 0 0 0 0 0 0 0 0 0 0 0 0 0 0 26 99 67 11 0 0 0 0 0
0 0 0 3 5 0 2 91 99 4 0 6 9 0 1 3 0 0 0 0 0 0 0 0 0 0 0 0 0 0 0 0 0 0 0 0 2 3 5 3 44 1 0 0 0
0 0 0 80 95 99 96 100 100 100 96 48 5 0 5 91 69 19 0 0 0 0 0 0 0 0 0 0 0 0 0 0 0 0 0 0 0 5 47 54 97 26 1 0 0
0 0 0 0 11 100 100 100 100 100 97 90 100 56 5 3 25 33 0 0 0 0 0 0 0 0 0 0 0 0 0 0 0 0 0 0 0 98 100 82 42 0 0 0 0
0 3 89 2 0 19 100 100 100 100 100 100 100 100 86 3 0 0 0 0 0 0 0 0 0 0 0 0 0 0 0 0 0 0 0 0 27 100 100 100 64 3 0 0 0
2 12 7 6 5 48 100 100 100 100 100 100 100 93 100 100 2 0 0 0 0 0 0 0 0 0 0 0 0 0 0 1 0 0 0 0 0 22 13 1 0 0 0 0 0
100 76 4 5 19 100 100 100 100 100 100 100 100 100 100 100 5 4 2 4 0 0 0 0 0 0 0 0 0 0 0 0 0 0 0 0 0 0 0 0 0 0 0 0 0
100 98 5 22 100 96 100 100 100 100 100 100 100 100 100 100 92 87 40 0 0 0 0 0 0 0 0 0 0 0 0 0 0 1 0 0 0 0 0 0 0 0 0 0 0